Location: Hac?musa Deresi
(39.1694°N, 32.2508°E)
Time: 11:14:20
(UTC+00:00)

In-Cosmos 22 Rocket - Pass Details

Date: 22 April 2026
Orbit: 789 x 886 km, 81.2° (Epoch: 20 May)

Event Time Altitude Azimuth Distance (km) Brightness Sun altitude
Rises 17:15:38 0° 348° (NNW) 3,292 7.8 -8.2°
Reaches altitude 10° 17:18:01 10° 347° (NNW) 2,359 7.1 -8.6°
Maximum altitude 17:23:18 73° 263° (W) 829 4.4 -9.6°
Drops below altitude 10° 17:28:36 10° 180° (S) 2,365 6.3 -10.5°
Sets 17:30:59 0° 178° (S) 3,302 7.0 -10.9°
